| time (UTC) | temp C | wind direction | speed KPH | gust KPH | rain 1hr cm | rain 24hr cm | rain mn cm | humidity % | barometer mb |
| 20260508033739 | 8 | 167 | 9.7 | 12.9 | 0.00 | 0.03 | 0.03 | 70 | 977.8 |
| 20260508033237 | 7 | 170 | 6.4 | 6.4 | 0.00 | 0.03 | 0.03 | 77 | 977.9 |
| 20260508032735 | 6 | 177 | 9.7 | 11.3 | 0.00 | 0.03 | 0.03 | 84 | 977.9 |
| 20260508032232 | 7 | 181 | 9.7 | 11.3 | 0.00 | 0.03 | 0.03 | 80 | 977.8 |
| 20260508031728 | 6 | 171 | 9.7 | 11.3 | 0.00 | 0.03 | 0.03 | 81 | 977.9 |
| 20260508031225 | 6 | 180 | 1.6 | 3.2 | 0.00 | 0.03 | 0.03 | 88 | 978.0 |
| 20260508030721 | 6 | 176 | 6.4 | 6.4 | 0.00 | 0.03 | 0.03 | 87 | 977.8 |
| 20260508030219 | 6 | 194 | 1.6 | 3.2 | 0.00 | 0.03 | 0.03 | 87 | 977.7 |
| 20260508025715 | 6 | 185 | 1.6 | 1.6 | 0.00 | 0.03 | 0.03 | 86 | 977.6 |
| 20260508025212 | 7 | 176 | 3.2 | 3.2 | 0.00 | 0.03 | 0.03 | 84 | 977.7 |
| 20260508024708 | 7 | 185 | 1.6 | 1.6 | 0.00 | 0.03 | 0.03 | 83 | 977.6 |
| 20260508024206 | 7 | 177 | 6.4 | 9.7 | 0.00 | 0.03 | 0.03 | 82 | 977.6 |
| 20260508023701 | 8 | 177 | 3.2 | 4.8 | 0.00 | 0.03 | 0.03 | 82 | 977.7 |
| 20260508023159 | 8 | 168 | 1.6 | 1.6 | 0.00 | 0.03 | 0.03 | 69 | 977.6 |
| 20260508022655 | 7 | 186 | 3.2 | 4.8 | 0.00 | 0.03 | 0.03 | 82 | 977.5 |
| 20260508022152 | 7 | 105 | 3.2 | 3.2 | 0.00 | 0.03 | 0.03 | 80 | 977.6 |
| 20260508021648 | 8 | 178 | 6.4 | 6.4 | 0.00 | 0.03 | 0.03 | 82 | 977.6 |
| 20260508021143 | 8 | 152 | 3.2 | 4.8 | 0.00 | 0.03 | 0.03 | 81 | 977.4 |
| 20260508020642 | 8 | 181 | 6.4 | 6.4 | 0.00 | 0.03 | 0.03 | 77 | 977.4 |
| 20260508020139 | 9 | 176 | 4.8 | 4.8 | 0.00 | 0.03 | 0.03 | 79 | 977.3 |
| 20260508015636 | 8 | 178 | 4.8 | 6.4 | 0.00 | 0.03 | 0.03 | 80 | 977.3 |
| 20260508015133 | 8 | 185 | 8.0 | 9.7 | 0.00 | 0.03 | 0.03 | 80 | 977.3 |
| 20260508014630 | 8 | 171 | 4.8 | 4.8 | 0.00 | 0.03 | 0.03 | 80 | 977.3 |
| 20260508014126 | 10 | 181 | 4.8 | 4.8 | 0.00 | 0.03 | 0.03 | 66 | 977.1 |
| 20260508013622 | 10 | 168 | 4.8 | 6.4 | 0.00 | 0.03 | 0.03 | 72 | 977.0 |
| 20260508013119 | 11 | 174 | 6.4 | 6.4 | 0.00 | 0.03 | 0.03 | 74 | 977.0 |
| 20260508012617 | 11 | 176 | 6.4 | 6.4 | 0.00 | 0.03 | 0.03 | 59 | 977.0 |
| 20260508012114 | 12 | 177 | 4.8 | 4.8 | 0.00 | 0.03 | 0.03 | 53 | 976.8 |
| 20260508011612 | 12 | 168 | 6.4 | 6.4 | 0.00 | 0.03 | 0.03 | 53 | 976.7 |
| 20260508011109 | 12 | 170 | 9.7 | 11.3 | 0.00 | 0.03 | 0.03 | 55 | 976.8 |
| 20260508010606 | 11 | 143 | 3.2 | 3.2 | 0.00 | 0.03 | 0.03 | 58 | 976.6 |
| 20260508010104 | 12 | 178 | 3.2 | 4.8 | 0.00 | 0.03 | 0.03 | 53 | 976.5 |
| 20260508005600 | 12 | 229 | 3.2 | 4.8 | 0.00 | 0.03 | 0.03 | 50 | 976.5 |
| 20260508005056 | 13 | 182 | 4.8 | 4.8 | 0.00 | 0.03 | 0.03 | 51 | 976.4 |
| 20260508004552 | 13 | 182 | 6.4 | 6.4 | 0.00 | 0.03 | 0.03 | 50 | 976.4 |
| 20260508004049 | 13 | 182 | 6.4 | 6.4 | 0.00 | 0.03 | 0.03 | 50 | 976.3 |
| 20260508003546 | 13 | 110 | 6.4 | 6.4 | 0.00 | 0.03 | 0.03 | 50 | 976.2 |
| 20260508003043 | 13 | 179 | 4.8 | 4.8 | 0.00 | 0.03 | 0.03 | 48 | 976.1 |
| 20260508002539 | 13 | 194 | 16.1 | 22.5 | 0.00 | 0.03 | 0.03 | 47 | 975.8 |
| 20260508002037 | 13 | 174 | 1.6 | 3.2 | 0.00 | 0.03 | 0.03 | 48 | 975.8 |
| 20260508001532 | 13 | 187 | 8.0 | 9.7 | 0.00 | 0.03 | 0.03 | 46 | 976.0 |
| 20260508001029 | 14 | 204 | 8.0 | 11.3 | 0.00 | 0.03 | 0.03 | 46 | 975.7 |
| 20260508000525 | 14 | 193 | 9.7 | 12.9 | 0.00 | 0.03 | 0.03 | 45 | 975.5 |
| 20260508000023 | 15 | 182 | 6.4 | 6.4 | 0.00 | 0.03 | 0.03 | 45 | 975.6 |
| 20260507235519 | 15 | 197 | 1.6 | 3.2 | 0.00 | 0.03 | 0.03 | 45 | 975.4 |
| 20260507235016 | 15 | 187 | 8.0 | 12.9 | 0.00 | 0.03 | 0.03 | 44 | 975.3 |
| 20260507234513 | 15 | 169 | 6.4 | 9.7 | 0.00 | 0.03 | 0.03 | 47 | 975.3 |
| 20260507234009 | 15 | 179 | 3.2 | 4.8 | 0.00 | 0.03 | 0.03 | 47 | 975.3 |
| 20260507233506 | 15 | 186 | 8.0 | 11.3 | 0.00 | 0.03 | 0.03 | 47 | 975.3 |
| 20260507233005 | 15 | 183 | 6.4 | 6.4 | 0.00 | 0.03 | 0.03 | 48 | 975.0 |
| 20260507232500 | 15 | 186 | 4.8 | 4.8 | 0.00 | 0.03 | 0.03 | 49 | 975.1 |
| 20260507231958 | 15 | 194 | 1.6 | 3.2 | 0.00 | 0.03 | 0.03 | 47 | 975.0 |
| 20260507231454 | 16 | 186 | 12.9 | 14.5 | 0.00 | 0.03 | 0.03 | 46 | 974.7 |
| 20260507230951 | 16 | 197 | 4.8 | 4.8 | 0.00 | 0.03 | 0.03 | 45 | 974.6 |
| 20260507230448 | 16 | 190 | 11.3 | 14.5 | 0.00 | 0.03 | 0.03 | 45 | 974.5 |
| 20260507225943 | 16 | 208 | 8.0 | 11.3 | 0.00 | 0.03 | 0.03 | 46 | 974.6 |
| 20260507225440 | 16 | 25 | 9.7 | 14.5 | 0.00 | 0.03 | 0.03 | 44 | 974.4 |
| 20260507224936 | 16 | 200 | 16.1 | 16.1 | 0.00 | 0.03 | 0.03 | 46 | 974.3 |
| 20260507224432 | 16 | 176 | 9.7 | 11.3 | 0.00 | 0.03 | 0.03 | 46 | 974.2 |
| 20260507223929 | 16 | 199 | 9.7 | 14.5 | 0.00 | 0.03 | 0.03 | 47 | 974.0 |
| 20260507223425 | 16 | 108 | 6.4 | 6.4 | 0.00 | 0.03 | 0.03 | 52 | 974.2 |
| 20260507222922 | 16 | 186 | 11.3 | 14.5 | 0.00 | 0.03 | 0.03 | 57 | 974.2 |
| 20260507222419 | 16 | 180 | 6.4 | 6.4 | 0.00 | 0.03 | 0.03 | 76 | 974.1 |
| 20260507221916 | 16 | 74 | 3.2 | 3.2 | 0.00 | 0.03 | 0.03 | 75 | 974.0 |
| 20260507221412 | 16 | 51 | 0.0 | 0.0 | 0.00 | 0.03 | 0.03 | 73 | 973.9 |
| 20260507220908 | 16 | 51 | 0.0 | 1.6 | 0.00 | 0.03 | 0.03 | 74 | 973.9 |
| 20260507220407 | 16 | 59 | 3.2 | 3.2 | 0.00 | 0.03 | 0.03 | 74 | 973.7 |
| 20260507215903 | 16 | 48 | 3.2 | 4.8 | 0.00 | 0.03 | 0.03 | 74 | 973.8 |
| 20260507215359 | 16 | 30 | 6.4 | 6.4 | 0.00 | 0.03 | 0.03 | 73 | 973.7 |
| 20260507214857 | 17 | 44 | 1.6 | 3.2 | 0.00 | 0.03 | 0.03 | 70 | 973.6 |
| 20260507214354 | 17 | 52 | 3.2 | 4.8 | 0.00 | 0.03 | 0.03 | 71 | 973.4 |
| 20260507213850 | 16 | 82 | 0.0 | 1.6 | 0.00 | 0.03 | 0.03 | 70 | 973.6 |
| 20260507213346 | 17 | 346 | 1.6 | 1.6 | 0.00 | 0.03 | 0.03 | 70 | 973.8 |
| 20260507212843 | 17 | 20 | 0.0 | 1.6 | 0.00 | 0.03 | 0.03 | 68 | 973.7 |
| 20260507212339 | 16 | 53 | 1.6 | 3.2 | 0.00 | 0.03 | 0.03 | 71 | 973.8 |
| 20260507211836 | 16 | 50 | 4.8 | 4.8 | 0.00 | 0.03 | 0.03 | 71 | 973.8 |
| 20260507211333 | 16 | 40 | 4.8 | 6.4 | 0.00 | 0.03 | 0.03 | 73 | 973.7 |
| 20260507210829 | 16 | 29 | 6.4 | 6.4 | 0.00 | 0.03 | 0.03 | 74 | 973.5 |
| 20260507210326 | 16 | 331 | 6.4 | 9.7 | 0.00 | 0.03 | 0.03 | 73 | 973.6 |
| 20260507205823 | 16 | 18 | 1.6 | 3.2 | 0.00 | 0.03 | 0.03 | 75 | 973.6 |
| 20260507205320 | 16 | 28 | 3.2 | 4.8 | 0.00 | 0.03 | 0.03 | 74 | 973.5 |
| 20260507204816 | 16 | 40 | 1.6 | 3.2 | 0.00 | 0.03 | 0.03 | 75 | 973.3 |
| 20260507204313 | 16 | 18 | 3.2 | 4.8 | 0.00 | 0.03 | 0.03 | 74 | 973.6 |
| 20260507203811 | 16 | 24 | 9.7 | 12.9 | 0.00 | 0.03 | 0.03 | 73 | 973.7 |
| 20260507203309 | 16 | 7 | 6.4 | 9.7 | 0.00 | 0.03 | 0.03 | 73 | 973.7 |
| 20260507202805 | 16 | 11 | 3.2 | 3.2 | 0.00 | 0.03 | 0.03 | 71 | 973.8 |
| 20260507202301 | 16 | 11 | 6.4 | 6.4 | 0.00 | 0.03 | 0.03 | 72 | 973.8 |
| 20260507201756 | 16 | 356 | 8.0 | 9.7 | 0.00 | 0.03 | 0.03 | 76 | 973.8 |
| 20260507201253 | 15 | 33 | 6.4 | 6.4 | 0.00 | 0.03 | 0.03 | 74 | 973.7 |
| 20260507200749 | 15 | 60 | 3.2 | 3.2 | 0.00 | 0.03 | 0.03 | 76 | 973.6 |
| 20260507200245 | 15 | 353 | 6.4 | 6.4 | 0.00 | 0.03 | 0.03 | 75 | 973.9 |
| 20260507195741 | 15 | 29 | 8.0 | 11.3 | 0.00 | 0.03 | 0.03 | 76 | 974.1 |
| 20260507195239 | 15 | 1 | 9.7 | 11.3 | 0.00 | 0.03 | 0.03 | 74 | 974.2 |
| 20260507194736 | 15 | 343 | 9.7 | 11.3 | 0.00 | 0.03 | 0.03 | 77 | 974.0 |
| 20260507194232 | 15 | 7 | 6.4 | 11.3 | 0.00 | 0.03 | 0.03 | 77 | 974.2 |
| 20260507193729 | 16 | 30 | 6.4 | 6.4 | 0.00 | 0.03 | 0.03 | 74 | 974.1 |
| 20260507193225 | 16 | 44 | 8.0 | 9.7 | 0.00 | 0.03 | 0.03 | 74 | 974.2 |
| 20260507192722 | 16 | 30 | 8.0 | 11.3 | 0.00 | 0.03 | 0.03 | 74 | 974.3 |
| 20260507192219 | 16 | 328 | 0.0 | 1.6 | 0.00 | 0.03 | 0.03 | 73 | 974.4 |
| 20260507191714 | 15 | 354 | 3.2 | 3.2 | 0.00 | 0.03 | 0.03 | 76 | 974.5 |
| 20260507191212 | 15 | 26 | 6.4 | 9.7 | 0.00 | 0.03 | 0.03 | 77 | 974.5 |
| 20260507190708 | 14 | 15 | 4.8 | 4.8 | 0.00 | 0.03 | 0.03 | 80 | 974.6 |
| 20260507190207 | 14 | 44 | 8.0 | 11.3 | 0.00 | 0.03 | 0.03 | 79 | 974.7 |
| 20260507185705 | 14 | 10 | 9.7 | 12.9 | 0.00 | 0.03 | 0.03 | 78 | 975.0 |
| 20260507185201 | 14 | 2 | 6.4 | 6.4 | 0.00 | 0.03 | 0.03 | 77 | 974.8 |
| 20260507184659 | 14 | 357 | 11.3 | 12.9 | 0.00 | 0.03 | 0.03 | 78 | 974.8 |
| 20260507184157 | 15 | 6 | 9.7 | 11.3 | 0.00 | 0.03 | 0.03 | 77 | 974.8 |
| 20260507183653 | 14 | 332 | 11.3 | 14.5 | 0.00 | 0.03 | 0.03 | 78 | 974.7 |
| 20260507183150 | 15 | 353 | 16.1 | 17.7 | 0.00 | 0.03 | 0.03 | 76 | 974.6 |
| 20260507182647 | 15 | 341 | 12.9 | 16.1 | 0.00 | 0.03 | 0.03 | 75 | 974.8 |
| 20260507182143 | 15 | 21 | 3.2 | 3.2 | 0.00 | 0.03 | 0.03 | 77 | 974.7 |
| 20260507181640 | 15 | 29 | 3.2 | 6.4 | 0.00 | 0.03 | 0.03 | 76 | 974.9 |
| 20260507181136 | 15 | 18 | 1.6 | 3.2 | 0.00 | 0.03 | 0.03 | 73 | 974.9 |
| 20260507180632 | 15 | 24 | 1.6 | 3.2 | 0.00 | 0.03 | 0.03 | 76 | 975.0 |
| 20260507180130 | 15 | 326 | 0.0 | 0.0 | 0.00 | 0.03 | 0.03 | 74 | 975.2 |
| 20260507175625 | 13 | 7 | 0.0 | 1.6 | 0.00 | 0.03 | 0.03 | 76 | 975.4 |
| 20260507175123 | 14 | 353 | 3.2 | 4.8 | 0.00 | 0.03 | 0.03 | 77 | 975.3 |
| 20260507174620 | 13 | 36 | 3.2 | 4.8 | 0.00 | 0.03 | 0.03 | 78 | 975.3 |
| 20260507174118 | 13 | 36 | 6.4 | 6.4 | 0.00 | 0.03 | 0.03 | 79 | 975.4 |
| 20260507173615 | 14 | 6 | 11.3 | 12.9 | 0.00 | 0.03 | 0.03 | 77 | 975.3 |
| 20260507173112 | 14 | 29 | 4.8 | 6.4 | 0.00 | 0.03 | 0.03 | 78 | 975.3 |
| 20260507172607 | 15 | 17 | 6.4 | 9.7 | 0.00 | 0.03 | 0.03 | 74 | 975.4 |
| 20260507172106 | 16 | 338 | 0.0 | 1.6 | 0.00 | 0.03 | 0.03 | 67 | 975.6 |
| 20260507171600 | 15 | 313 | 0.0 | 0.0 | 0.00 | 0.03 | 0.03 | 70 | 975.7 |
| 20260507171057 | 15 | 344 | 1.6 | 1.6 | 0.00 | 0.03 | 0.03 | 72 | 975.7 |
| 20260507170554 | 14 | 9 | 3.2 | 3.2 | 0.00 | 0.03 | 0.03 | 76 | 975.7 |
| 20260507170051 | 14 | 359 | 8.0 | 9.7 | 0.00 | 0.03 | 0.03 | 76 | 976.0 |
| 20260507165547 | 13 | 37 | 4.8 | 6.4 | 0.00 | 0.03 | 0.03 | 77 | 976.0 |
| 20260507165043 | 14 | 18 | 6.4 | 6.4 | 0.00 | 0.03 | 0.03 | 75 | 975.9 |
| 20260507164540 | 14 | 17 | 8.0 | 11.3 | 0.00 | 0.03 | 0.03 | 74 | 975.8 |
| 20260507164037 | 15 | 1 | 12.9 | 12.9 | 0.00 | 0.03 | 0.03 | 75 | 975.9 |
| 20260507163534 | 15 | 15 | 6.4 | 9.7 | 0.00 | 0.03 | 0.03 | 74 | 976.0 |
| 20260507163032 | 15 | 326 | 3.2 | 4.8 | 0.00 | 0.03 | 0.03 | 73 | 976.3 |
| 20260507162532 | 13 | 2 | 4.8 | 6.4 | 0.00 | 0.03 | 0.03 | 77 | 976.3 |
| 20260507162030 | 14 | 20 | 3.2 | 4.8 | 0.00 | 0.03 | 0.03 | 77 | 976.5 |
| 20260507161526 | 13 | 0 | 9.7 | 11.3 | 0.00 | 0.03 | 0.03 | 79 | 976.5 |
| 20260507161023 | 14 | 345 | 1.6 | 3.2 | 0.00 | 0.03 | 0.03 | 74 | 976.5 |
| 20260507160519 | 14 | 42 | 3.2 | 4.8 | 0.00 | 0.03 | 0.03 | 75 | 976.5 |
| 20260507160015 | 13 | 321 | 1.6 | 3.2 | 0.00 | 0.03 | 0.03 | 76 | 976.7 |
| 20260507155510 | 13 | 35 | 4.8 | 6.4 | 0.00 | 0.03 | 0.03 | 79 | 976.8 |
| 20260507155008 | 13 | 355 | 4.8 | 4.8 | 0.00 | 0.03 | 0.03 | 79 | 976.7 |
| 20260507154504 | 12 | 339 | 4.8 | 6.4 | 0.00 | 0.03 | 0.03 | 81 | 976.8 |
| 20260507154001 | 12 | 352 | 6.4 | 9.7 | 0.00 | 0.03 | 0.03 | 80 | 977.0 |
| 20260507153458 | 12 | 23 | 3.2 | 3.2 | 0.00 | 0.03 | 0.03 | 81 | 977.0 |
| 20260507152954 | 12 | 29 | 6.4 | 6.4 | 0.00 | 0.03 | 0.03 | 81 | 977.0 |
| 20260507152450 | 12 | 1 | 9.7 | 11.3 | 0.00 | 0.03 | 0.03 | 80 | 977.1 |
| 20260507151947 | 12 | 354 | 4.8 | 9.7 | 0.00 | 0.03 | 0.03 | 83 | 976.8 |
| 20260507151443 | 12 | 27 | 6.4 | 6.4 | 0.00 | 0.03 | 0.03 | 82 | 977.0 |
| 20260507150940 | 12 | 19 | 3.2 | 4.8 | 0.00 | 0.03 | 0.03 | 82 | 976.9 |
| 20260507150437 | 12 | 14 | 3.2 | 3.2 | 0.00 | 0.03 | 0.03 | 83 | 976.9 |
| 20260507145933 | 12 | 29 | 4.8 | 4.8 | 0.00 | 0.03 | 0.03 | 84 | 977.1 |
| 20260507145429 | 12 | 25 | 3.2 | 3.2 | 0.00 | 0.03 | 0.03 | 85 | 976.9 |
| 20260507144926 | 12 | 354 | 3.2 | 4.8 | 0.00 | 0.03 | 0.03 | 84 | 977.2 |
| 20260507144423 | 12 | 1 | 4.8 | 4.8 | 0.00 | 0.03 | 0.03 | 84 | 977.2 |
| 20260507143920 | 12 | 125 | 1.6 | 1.6 | 0.00 | 0.03 | 0.03 | 79 | 977.1 |
| 20260507143418 | 12 | 204 | 3.2 | 3.2 | 0.00 | 0.03 | 0.03 | 79 | 977.3 |
| 20260507142914 | 12 | 45 | 1.6 | 1.6 | 0.00 | 0.03 | 0.03 | 80 | 977.4 |
| 20260507142410 | 12 | 290 | 0.0 | 0.0 | 0.00 | 0.03 | 0.03 | 83 | 977.3 |
| 20260507141907 | 12 | 289 | 0.0 | 0.0 | 0.00 | 0.03 | 0.03 | 84 | 977.6 |
| 20260507141403 | 12 | 288 | 0.0 | 0.0 | 0.00 | 0.03 | 0.03 | 86 | 977.4 |
| 20260507140900 | 11 | 290 | 0.0 | 0.0 | 0.00 | 0.03 | 0.03 | 87 | 977.6 |
| 20260507140357 | 11 | 290 | 0.0 | 0.0 | 0.00 | 0.03 | 0.03 | 88 | 977.7 |
| 20260507135855 | 11 | 290 | 0.0 | 0.0 | 0.00 | 0.03 | 0.03 | 87 | 977.7 |
| 20260507135351 | 12 | 290 | 1.6 | 1.6 | 0.00 | 0.03 | 0.03 | 86 | 977.8 |
| 20260507134849 | 11 | 290 | 0.0 | 0.0 | 0.00 | 0.03 | 0.03 | 87 | 977.7 |
| 20260507134345 | 11 | 290 | 0.0 | 0.0 | 0.00 | 0.03 | 0.03 | 87 | 977.7 |
| 20260507133841 | 11 | 289 | 0.0 | 0.0 | 0.00 | 0.03 | 0.03 | 88 | 977.7 |
| 20260507133336 | 11 | 289 | 0.0 | 0.0 | 0.00 | 0.03 | 0.03 | 89 | 977.8 |
| 20260507132835 | 11 | 289 | 1.6 | 1.6 | 0.00 | 0.03 | 0.03 | 89 | 977.7 |
| 20260507132331 | 11 | 290 | 1.6 | 1.6 | 0.00 | 0.03 | 0.03 | 89 | 977.9 |
| 20260507131829 | 11 | 290 | 1.6 | 1.6 | 0.00 | 0.03 | 0.03 | 90 | 978.0 |
| 20260507131325 | 11 | 289 | 1.6 | 1.6 | 0.00 | 0.03 | 0.03 | 91 | 978.0 |
| 20260507130822 | 11 | 329 | 0.0 | 0.0 | 0.00 | 0.03 | 0.03 | 89 | 977.9 |
| 20260507130319 | 11 | 334 | 0.0 | 0.0 | 0.00 | 0.03 | 0.03 | 88 | 977.9 |
| 20260507125818 | 11 | 342 | 0.0 | 0.0 | 0.00 | 0.03 | 0.03 | 89 | 978.1 |
| 20260507125315 | 11 | 342 | 0.0 | 0.0 | 0.00 | 0.03 | 0.03 | 88 | 978.0 |
| 20260507124812 | 11 | 342 | 0.0 | 0.0 | 0.00 | 0.03 | 0.03 | 88 | 978.1 |
| 20260507124309 | 11 | 342 | 0.0 | 0.0 | 0.00 | 0.03 | 0.03 | 88 | 978.1 |
| 20260507123807 | 11 | 342 | 0.0 | 0.0 | 0.00 | 0.03 | 0.03 | 89 | 977.8 |
| 20260507123304 | 11 | 342 | 0.0 | 1.6 | 0.00 | 0.03 | 0.03 | 88 | 977.9 |
| 20260507122800 | 11 | 342 | 1.6 | 1.6 | 0.00 | 0.03 | 0.03 | 88 | 977.9 |
| 20260507122255 | 11 | 342 | 0.0 | 1.6 | 0.00 | 0.03 | 0.03 | 88 | 978.0 |
| 20260507121751 | 11 | 342 | 0.0 | 0.0 | 0.00 | 0.03 | 0.03 | 88 | 977.7 |
| 20260507121248 | 11 | 342 | 0.0 | 0.0 | 0.00 | 0.03 | 0.03 | 88 | 977.7 |
| 20260507120743 | 11 | 343 | 0.0 | 0.0 | 0.00 | 0.03 | 0.03 | 88 | 977.7 |
| 20260507120241 | 11 | 342 | 1.6 | 1.6 | 0.00 | 0.03 | 0.03 | 87 | 977.5 |
| 20260507115737 | 11 | 336 | 0.0 | 0.0 | 0.00 | 0.03 | 0.03 | 87 | 977.6 |
| 20260507115233 | 11 | 336 | 0.0 | 0.0 | 0.00 | 0.03 | 0.03 | 87 | 977.6 |
| 20260507114728 | 11 | 357 | 0.0 | 1.6 | 0.00 | 0.03 | 0.03 | 87 | 977.5 |
| 20260507114226 | 11 | 356 | 0.0 | 0.0 | 0.00 | 0.03 | 0.03 | 87 | 977.6 |
| 20260507113723 | 11 | 357 | 1.6 | 1.6 | 0.00 | 0.03 | 0.03 | 89 | 977.4 |
| 20260507113220 | 11 | 356 | 0.0 | 1.6 | 0.00 | 0.03 | 0.03 | 89 | 977.5 |
| 20260507112718 | 11 | 356 | 0.0 | 0.0 | 0.00 | 0.03 | 0.03 | 89 | 977.2 |
| 20260507112215 | 11 | 356 | 0.0 | 1.6 | 0.00 | 0.03 | 0.03 | 89 | 977.3 |
| 20260507111712 | 11 | 357 | 1.6 | 3.2 | 0.00 | 0.03 | 0.03 | 89 | 977.1 |
| 20260507111209 | 11 | 326 | 0.0 | 0.0 | 0.00 | 0.03 | 0.03 | 90 | 977.3 |
| 20260507110705 | 11 | 326 | 0.0 | 0.0 | 0.00 | 0.03 | 0.03 | 90 | 977.3 |
| 20260507110202 | 11 | 326 | 3.2 | 3.2 | 0.00 | 0.03 | 0.03 | 89 | 977.2 |
| 20260507105659 | 11 | 315 | 0.0 | 1.6 | 0.00 | 0.03 | 0.03 | 90 | 977.1 |
| 20260507105154 | 11 | 315 | 0.0 | 0.0 | 0.00 | 0.03 | 0.03 | 89 | 977.1 |
| 20260507104652 | 11 | 315 | 0.0 | 0.0 | 0.00 | 0.03 | 0.03 | 90 | 976.9 |
| 20260507104148 | 11 | 315 | 0.0 | 0.0 | 0.00 | 0.03 | 0.03 | 90 | 976.9 |
| 20260507103644 | 11 | 315 | 0.0 | 1.6 | 0.00 | 0.03 | 0.03 | 90 | 977.0 |
| 20260507103141 | 11 | 315 | 0.0 | 0.0 | 0.00 | 0.03 | 0.03 | 90 | 976.9 |
| 20260507102638 | 11 | 314 | 0.0 | 0.0 | 0.00 | 0.03 | 0.03 | 89 | 976.8 |
| 20260507102134 | 11 | 315 | 0.0 | 0.0 | 0.00 | 0.03 | 0.03 | 90 | 977.1 |
| 20260507101630 | 11 | 315 | 0.0 | 0.0 | 0.00 | 0.03 | 0.03 | 90 | 977.0 |
| 20260507101126 | 11 | 315 | 0.0 | 0.0 | 0.00 | 0.03 | 0.03 | 90 | 976.9 |
| 20260507100623 | 11 | 332 | 3.2 | 3.2 | 0.00 | 0.03 | 0.03 | 90 | 976.9 |
| 20260507100121 | 11 | 1 | 3.2 | 4.8 | 0.00 | 0.03 | 0.03 | 90 | 977.1 |
| 20260507095619 | 11 | 338 | 0.0 | 1.6 | 0.00 | 0.03 | 0.03 | 90 | 977.1 |
| 20260507095115 | 11 | 333 | 0.0 | 0.0 | 0.00 | 0.03 | 0.03 | 91 | 977.0 |
| 20260507094611 | 11 | 349 | 0.0 | 0.0 | 0.00 | 0.03 | 0.03 | 91 | 977.0 |
| 20260507094108 | 11 | 348 | 1.6 | 1.6 | 0.00 | 0.03 | 0.03 | 90 | 976.7 |
| 20260507093606 | 11 | 340 | 1.6 | 3.2 | 0.00 | 0.03 | 0.03 | 90 | 976.8 |
| 20260507093105 | 11 | 349 | 1.6 | 1.6 | 0.00 | 0.03 | 0.03 | 90 | 976.8 |
| 20260507092600 | 11 | 326 | 0.0 | 0.0 | 0.00 | 0.03 | 0.03 | 91 | 976.8 |
| 20260507092057 | 11 | 326 | 0.0 | 0.0 | 0.00 | 0.03 | 0.03 | 90 | 976.6 |
| 20260507091554 | 11 | 351 | 1.6 | 1.6 | 0.00 | 0.03 | 0.03 | 90 | 976.6 |
| 20260507091050 | 11 | 329 | 0.0 | 0.0 | 0.00 | 0.03 | 0.03 | 91 | 976.8 |
| 20260507090546 | 11 | 325 | 0.0 | 0.0 | 0.00 | 0.03 | 0.03 | 90 | 976.6 |
| 20260507090043 | 11 | 325 | 0.0 | 0.0 | 0.00 | 0.03 | 0.03 | 90 | 976.3 |
| 20260507085540 | 11 | 326 | 0.0 | 0.0 | 0.00 | 0.03 | 0.03 | 90 | 976.7 |
| 20260507085037 | 11 | 333 | 1.6 | 1.6 | 0.00 | 0.03 | 0.03 | 90 | 976.7 |
| 20260507084533 | 11 | 334 | 0.0 | 0.0 | 0.00 | 0.03 | 0.03 | 90 | 976.6 |
| 20260507084031 | 11 | 334 | 3.2 | 3.2 | 0.00 | 0.03 | 0.03 | 90 | 976.4 |
| 20260507083527 | 11 | 327 | 0.0 | 0.0 | 0.00 | 0.03 | 0.03 | 91 | 976.5 |
| 20260507083024 | 11 | 320 | 3.2 | 3.2 | 0.00 | 0.03 | 0.03 | 90 | 976.5 |
| 20260507082520 | 11 | 336 | 1.6 | 3.2 | 0.00 | 0.03 | 0.03 | 90 | 976.2 |
| 20260507082016 | 11 | 328 | 0.0 | 1.6 | 0.00 | 0.03 | 0.03 | 91 | 976.2 |
| 20260507081513 | 12 | 311 | 1.6 | 1.6 | 0.00 | 0.03 | 0.03 | 91 | 976.4 |
| 20260507081010 | 12 | 5 | 3.2 | 3.2 | 0.00 | 0.03 | 0.03 | 91 | 976.3 |
| 20260507080506 | 12 | 215 | 1.6 | 3.2 | 0.00 | 0.03 | 0.03 | 91 | 976.3 |
| 20260507080001 | 12 | 260 | 0.0 | 1.6 | 0.00 | 0.03 | 0.03 | 91 | 976.4 |
| 20260507075458 | 12 | 203 | 3.2 | 4.8 | 0.00 | 0.03 | 0.03 | 91 | 976.5 |
| 20260507074954 | 12 | 310 | 3.2 | 4.8 | 0.00 | 0.03 | 0.03 | 92 | 976.7 |
| 20260507074451 | 12 | 343 | 1.6 | 3.2 | 0.00 | 0.03 | 0.03 | 94 | 976.4 |
| 20260507073949 | 12 | 330 | 1.6 | 1.6 | 0.00 | 0.03 | 0.03 | 94 | 976.5 |
| 20260507073445 | 12 | 342 | 3.2 | 4.8 | 0.00 | 0.03 | 0.03 | 93 | 976.2 |
| 20260507072942 | 12 | 338 | 3.2 | 3.2 | 0.00 | 0.03 | 0.03 | 93 | 976.4 |
| 20260507072440 | 12 | 338 | 1.6 | 1.6 | 0.00 | 0.03 | 0.03 | 94 | 976.4 |
| 20260507071937 | 12 | 334 | 0.0 | 0.0 | 0.00 | 0.03 | 0.03 | 94 | 976.2 |
| 20260507071434 | 13 | 339 | 1.6 | 3.2 | 0.00 | 0.03 | 0.03 | 94 | 976.2 |
| 20260507070930 | 13 | 323 | 1.6 | 1.6 | 0.00 | 0.03 | 0.03 | 94 | 976.0 |
| 20260507070428 | 13 | 323 | 0.0 | 0.0 | 0.00 | 0.03 | 0.03 | 94 | 976.0 |
| 20260507065924 | 13 | 317 | 0.0 | 0.0 | 0.00 | 0.03 | 0.03 | 94 | 975.9 |
| 20260507065421 | 13 | 317 | 0.0 | 0.0 | 0.00 | 0.03 | 0.03 | 94 | 976.2 |
| 20260507064918 | 13 | 307 | 0.0 | 0.0 | 0.00 | 0.03 | 0.03 | 94 | 975.8 |
| 20260507064417 | 13 | 311 | 1.6 | 1.6 | 0.00 | 0.03 | 0.03 | 94 | 975.9 |
| 20260507063914 | 13 | 316 | 3.2 | 3.2 | 0.00 | 0.03 | 0.03 | 95 | 976.0 |
| 20260507063411 | 13 | 334 | 3.2 | 3.2 | 0.00 | 0.03 | 0.03 | 95 | 976.0 |
| 20260507062908 | 13 | 344 | 4.8 | 6.4 | 0.00 | 0.03 | 0.03 | 95 | 976.1 |
| 20260507062405 | 13 | 313 | 3.2 | 4.8 | 0.00 | 0.03 | 0.03 | 96 | 976.1 |
| 20260507061902 | 14 | 329 | 4.8 | 6.4 | 0.00 | 0.03 | 0.03 | 96 | 976.0 |
| 20260507061400 | 14 | 310 | 0.0 | 0.0 | 0.00 | 0.03 | 0.03 | 95 | 975.9 |
| 20260507060859 | 14 | 306 | 1.6 | 1.6 | 0.00 | 0.03 | 0.03 | 95 | 976.0 |
| 20260507060355 | 14 | 303 | 1.6 | 1.6 | 0.00 | 0.03 | 0.03 | 96 | 975.6 |
| 20260507055852 | 15 | 291 | 0.0 | 1.6 | 0.00 | 0.03 | 0.03 | 96 | 976.0 |
| 20260507055346 | 15 | 295 | 0.0 | 1.6 | 0.00 | 0.03 | 0.03 | 97 | 976.1 |
| 20260507054844 | 15 | 308 | 0.0 | 0.0 | 0.00 | 0.03 | 0.03 | 97 | 976.0 |
| 20260507054340 | 15 | 296 | 0.0 | 0.0 | 0.00 | 0.03 | 0.03 | 97 | 976.2 |
| 20260507053837 | 15 | 290 | 1.6 | 1.6 | 0.00 | 0.03 | 0.03 | 97 | 976.3 |
| 20260507053335 | 15 | 290 | 0.0 | 0.0 | 0.00 | 0.03 | 0.03 | 98 | 976.2 |
| 20260507052834 | 15 | 288 | 0.0 | 0.0 | 0.00 | 0.03 | 0.03 | 97 | 976.2 |
| 20260507052330 | 15 | 289 | 0.0 | 0.0 | 0.00 | 0.03 | 0.03 | 97 | 976.3 |
| 20260507051828 | 15 | 325 | 0.0 | 0.0 | 0.00 | 0.03 | 0.03 | 98 | 976.0 |
| 20260507051325 | 15 | 294 | 0.0 | 0.0 | 0.00 | 0.03 | 0.03 | 98 | 975.9 |
| 20260507050822 | 15 | 306 | 0.0 | 0.0 | 0.00 | 0.03 | 0.03 | 98 | 975.7 |
| 20260507050318 | 15 | 203 | 3.2 | 4.8 | 0.00 | 0.03 | 0.03 | 98 | 975.8 |
| 20260507045815 | 15 | 303 | 0.0 | 0.0 | 0.00 | 0.03 | 0.03 | 98 | 975.7 |
| 20260507045312 | 15 | 303 | 0.0 | 0.0 | 0.00 | 0.03 | 0.03 | 98 | 975.6 |
| 20260507044809 | 15 | 325 | 0.0 | 0.0 | 0.00 | 0.03 | 0.03 | 98 | 975.8 |
| 20260507044305 | 15 | 324 | 0.0 | 0.0 | 0.00 | 0.03 | 0.03 | 98 | 975.6 |
| 20260507043801 | 15 | 324 | 0.0 | 0.0 | 0.00 | 0.03 | 0.03 | 98 | 975.6 |
| 20260507043258 | 15 | 220 | 3.2 | 3.2 | 0.00 | 0.03 | 0.03 | 99 | 975.7 |
| 20260507042754 | 15 | 252 | 1.6 | 3.2 | 0.18 | 0.03 | 0.03 | 99 | 975.5 |
| 20260507042249 | 15 | 183 | 9.7 | 11.3 | 0.18 | 0.03 | 0.03 | 99 | 975.1 |
| 20260507041748 | 15 | 192 | 6.4 | 9.7 | 0.00 | 0.00 | 0.00 | 98 | 975.1 |
| 20260507041244 | 15 | 39 | 3.2 | 4.8 | 0.00 | 0.00 | 0.00 | 98 | 974.6 |
| 20260507040741 | 15 | 38 | 4.8 | 6.4 | 0.00 | 0.00 | 0.00 | 97 | 974.9 |
| 20260507040237 | 15 | 355 | 1.6 | 1.6 | 0.00 | 0.00 | 0.00 | 97 | 975.1 |
| 20260507035733 | 15 | 354 | 0.0 | 0.0 | 0.00 | 0.23 | 0.23 | 98 | 975.4 |
| 20260507035228 | 15 | 354 | 0.0 | 0.0 | 0.00 | 0.23 | 0.23 | 98 | 975.9 |
| 20260507034726 | 15 | 354 | 0.0 | 0.0 | 0.00 | 0.23 | 0.23 | 98 | 976.0 |